Location: Grasslands National Park East Block
(49.0708°N, 106.5295°W)
Time: 14:07:35
(UTC-06:00)

Max Valier Satellite - Pass Details

Date: 23 September 2019
Orbit: 490 x 508 km, 97.3° (Epoch: 12 October)

Event Time Altitude Azimuth Distance (km) Brightness Sun altitude
Exits shadow 20:24:11 11° 53° (NE) 1,657 ? -14.1°
Drops below altitude 10° 20:25:02 10° 40° (NE) 1,734 ? -14.2°
Sets 20:28:27 0° 6° (N) 2,626 ? -14.8°
